TimeHST,TemperatureF,Dew PointF,Humidity,Sea Level PressureIn,VisibilityMPH,Wind Direction,Wind SpeedMPH,Gust SpeedMPH,PrecipitationIn,Events,Conditions,WindDirDegrees,DateUTC
12:53 AM,75.9,66.9,74,29.98,10.0,Calm,Calm,-,N/A,,Partly Cloudy,0,2012-10-03 10:53:00
1:53 AM,75.0,66.9,76,29.97,10.0,NNE,3.5,-,N/A,,Partly Cloudy,20,2012-10-03 11:53:00
2:53 AM,73.9,68.0,82,29.96,10.0,Calm,Calm,-,N/A,,Clear,0,2012-10-03 12:53:00
3:53 AM,75.0,66.9,76,29.96,10.0,NE,4.6,-,N/A,,Clear,50,2012-10-03 13:53:00
4:53 AM,73.0,66.9,81,29.96,10.0,Calm,Calm,-,N/A,,Partly Cloudy,0,2012-10-03 14:53:00
5:53 AM,73.0,66.9,81,29.98,10.0,NNW,3.5,-,N/A,,Partly Cloudy,340,2012-10-03 15:53:00
6:53 AM,73.0,68.0,84,29.99,10.0,Calm,Calm,-,N/A,,Scattered Clouds,0,2012-10-03 16:53:00
7:53 AM,75.9,66.9,74,30.01,10.0,North,4.6,-,N/A,,Scattered Clouds,350,2012-10-03 17:53:00
8:53 AM,81.0,66.9,62,30.02,10.0,ENE,10.4,-,N/A,,Scattered Clouds,60,2012-10-03 18:53:00
9:53 AM,82.0,66.0,58,30.02,10.0,Variable,4.6,-,N/A,,Scattered Clouds,0,2012-10-03 19:53:00
10:53 AM,82.9,69.1,63,30.01,10.0,SE,10.4,-,N/A,,Scattered Clouds,140,2012-10-03 20:53:00
11:53 AM,82.9,69.1,63,29.99,10.0,SE,12.7,-,N/A,,Scattered Clouds,140,2012-10-03 21:53:00
12:53 PM,82.0,69.1,65,29.97,10.0,SSE,15.0,-,N/A,,Scattered Clouds,150,2012-10-03 22:53:00
1:53 PM,84.0,70.0,63,29.95,10.0,SSE,13.8,-,N/A,,Scattered Clouds,150,2012-10-03 23:53:00
2:53 PM,82.9,66.0,56,29.94,10.0,ENE,15.0,-,N/A,,Scattered Clouds,60,2012-10-04 00:53:00
3:53 PM,81.0,66.9,62,29.95,10.0,ENE,5.8,-,N/A,,Mostly Cloudy,60,2012-10-04 01:53:00
4:53 PM,79.0,66.9,66,29.96,10.0,NNE,6.9,-,0.00,Rain,Light Rain,20,2012-10-04 02:53:00
5:53 PM,79.0,66.9,66,29.98,10.0,NNE,5.8,-,0.00,,Mostly Cloudy,30,2012-10-04 03:53:00
6:53 PM,78.1,66.9,68,30.00,10.0,Variable,3.5,-,N/A,,Mostly Cloudy,0,2012-10-04 04:53:00
7:53 PM,78.1,66.0,66,30.02,10.0,ENE,3.5,-,N/A,,Scattered Clouds,60,2012-10-04 05:53:00
8:53 PM,78.1,66.0,66,30.03,10.0,ENE,10.4,-,N/A,,Scattered Clouds,70,2012-10-04 06:53:00
9:53 PM,78.1,66.0,66,30.05,10.0,NE,8.1,-,N/A,,Scattered Clouds,50,2012-10-04 07:53:00
10:53 PM,78.1,66.0,66,30.03,10.0,ENE,6.9,-,N/A,,Scattered Clouds,60,2012-10-04 08:53:00
11:53 PM,75.9,66.0,71,30.02,10.0,NE,6.9,-,0.00,,Scattered Clouds,40,2012-10-04 09:53:00